Location: Borz?cin
(51.1714°N, 19.6030°E)
Time: 08:36:25
(UTC+00:00)

ISS - Pass Details

Date: 19 May 2025
Orbit: 415 x 417 km, 51.6° (Epoch: 16 June)

Event Time Altitude Azimuth Distance (km) Brightness Sun altitude
Rises 21:53:28 0° 281° (WNW) 2,360 0.4 -18.2°
Reaches altitude 10° 21:56:05 10° 260° (W) 1,492 -1.0 -18.3°
Enters shadow 21:56:46 13° 250° (WSW) 1,329 -1.3 -18.3°
